Starlink 32148

operational
NORAD ID: 60263 Int'l Des: 2024-131 Owner: SPXS Country: US Constellation: starlink
LEOCIRCULAR

About Starlink 32148

Description loading...

Live Position

Loading 3D Globe...

Upcoming Passes

Altitude History

Altitude vs Time

uPlot chart will show altitude changes over time

Two-Line Element Set

1 60263U 24131J 25304.14042676 -.00001502 00000-0 -38614-4 0 9998
2 60263 53.1618 294.2003 0001638 118.3789 241.7377 15.30185041 71937
Epoch: Oct 31, 2025 • Age: 17 hours

Current Status

Altitude 483.8 km
Velocity 7.62 km/s
Sub-Earth Point -25.85°S, 77.72°W
Launch Date Jul 27, 2024
Age 1.2 years
Type internet

Technical Details

Classification Payload
Mass 730.00 kg
Dry Mass 700.00 kg
Total Mass 730.00 kg
Length 0.30 m
Diameter 4.10 m
Span 29.00 m
Shape Box + pan
Manufacturer SPXS
Bus Type Starlink V2M
Phase Status In Orbit
Owner/State SPXS/US

Large Constellations

Loading constellations...